<< Return to Weather Page
Fresno, CA
on Tuesday, January 22, 2013

Tuesday
Previous Day Next Day
Daily Summary
 ActualAverageRecord
Temperature
Mean Temperature - 47 °F  
Max Temperature 67 °F 56 °F 70 °F (1970)
Min Temperature 37 °F 39 °F 25 °F (1945)
Degree Days
Heating Degree Days 13    
Month to date heating degree days 424  
Since 1 July heating degree days 1085  
Cooling Degree Days 0    
Month to date cooling degree days 0  
Year to date cooling degree days 0  
Growing Degree Days2 (Base - )  
Moisture
Dew Point 39 °F   
Average Humidity 66    
Maximum Humidity 92    
Minimum Humidity 40    
Precipitation
Precipitation 0.00 in 0.06 in 1.48 in (1983)
Month to date precipitation 0.50 1.56  
Year to date precipitation 0.50 1.56  
Snow
Snow 0.00 in - - ()
Month to date snowfall 0.0  
Since 1 July snowfall 0.0  
Snow Depth 0.00 in   
Wind
Wind Speed 2 mph   
Max Wind Speed 7 mph   
Max Gust Speed 8 mph   
Visibility 5 miles   
Events     

Key: T is trace of precipitation, MM is missing value
Source: NWS Daily Summary
Time(PST)TemperatureDew PointHumidity Pressure Visibility Wind DirectionWind SpeedGust SpeedPrecipitationEvents Conditions
12:53 AM 42.1 °F 37.0 °F 82% 30.14 in 4.0 miles Calm Calm - N/A   Haze
1:53 AM 41.0 °F 37.0 °F 86% 30.12 in 4.0 miles Calm Calm - N/A   Partly Cloudy
2:53 AM 42.1 °F 37.0 °F 82% 30.12 in 5.0 miles SE 3.5 mph - N/A   Haze
3:53 AM 39.0 °F 35.1 °F 86% 30.14 in 4.0 miles Calm Calm - N/A   Partly Cloudy
4:53 AM 37.9 °F 35.1 °F 89% 30.15 in 4.0 miles ENE 3.5 mph - N/A   Clear
5:53 AM 39.0 °F 34.0 °F 82% 30.14 in 7.0 miles ENE 4.6 mph - N/A   Clear
6:53 AM 37.9 °F 32.0 °F 79% 30.15 in 9.0 miles SW 4.6 mph - N/A   Scattered Clouds
7:53 AM 39.9 °F 34.0 °F 79% 30.15 in 4.0 miles Calm Calm - N/A   Haze
8:53 AM 45.0 °F 39.0 °F 80% 30.15 in 3.0 miles WNW 5.8 mph - N/A   Haze
9:53 AM 51.1 °F 42.1 °F 71% 30.16 in 3.0 miles NW 4.6 mph - N/A   Haze
10:53 AM 55.9 °F 42.1 °F 60% 30.16 in 3.0 miles Calm Calm - N/A   Haze
11:53 AM 59.0 °F 42.1 °F 53% 30.13 in 3.0 miles Calm Calm - N/A   Haze
12:53 PM 62.1 °F 42.1 °F 48% 30.09 in 4.0 miles ESE 5.8 mph - N/A   Haze
1:53 PM 64.9 °F 39.9 °F 40% 30.08 in 5.0 miles Calm Calm - N/A   Haze
2:53 PM 64.9 °F 39.9 °F 40% 30.06 in 4.0 miles Calm Calm - N/A   Haze
3:53 PM 66.0 °F 41.0 °F 40% 30.05 in 4.0 miles Calm Calm - N/A   Haze
4:53 PM 63.0 °F 39.9 °F 43% 30.04 in 5.0 miles East 4.6 mph - N/A   Haze
5:53 PM 57.9 °F 41.0 °F 53% 30.05 in 6.0 miles Calm Calm - N/A   Haze
6:53 PM 54.0 °F 41.0 °F 62% 30.06 in 6.0 miles East 4.6 mph - N/A   Haze
7:53 PM 51.1 °F 41.0 °F 68% 30.08 in 5.0 miles ENE 6.9 mph - N/A   Haze
8:53 PM 50.0 °F 41.0 °F 71% 30.08 in 5.0 miles ENE 5.8 mph - N/A   Haze
9:53 PM 48.0 °F 39.9 °F 74% 30.08 in 6.0 miles Calm Calm - N/A   Haze
10:53 PM 46.0 °F 39.9 °F 79% 30.08 in 6.0 miles Calm Calm - N/A   Haze
11:53 PM 45.0 °F 39.0 °F 80% 30.09 in 6.0 miles Calm Calm - N/A   Haze

Astronomy

Sunrise: 07:07 AM (PST) Moon Rise: 01:41 PM (PST) 1 / 22
Sunset: 05:14 PM (PST) Moon Set: 03:32 AM (PST) 1 / 22
Moon Phase
Jan. 22 Jan. 27 Feb. 03 Feb. 10 Feb. 17

Powered by the Weather Underground, Inc.